Погода Мыс Лопатка

Погода Мыс Лопатка : погода сейчас, прогноз погоды и архив. Всё, что Вы хотите узнать о погоде Мыс Лопатка!

Поиск расширенной информации на нашем сайте:

Другие новости

Новости СМИ2

Главная страница сайта

Новости сайта

03.07.2017

Напоминаем, что на нашем специализированном сайте Метеоцентр.Азия вы можете получить высокодетализированные автоматические прогнозы погоды по пунктам России, СНГ и мира в авиационном формате (включающие направление и скорость ветра, видимость, явления погоды, количество и форму облачности, нижнюю и верхнюю границу облачности).


Погода Мыс Лопатка - сегодня

Время (UTC), дата Ветер
(°,м/с) 
Видим.   Явления Облачность Т
(°С)
Тd
(°С)
f(%) Тe
(°С)
Pmin
(гПа)
dP
(гПа)
Po
(мм)
O2
(г/м3)
Тmin Tmax R s Состояние
почвы
03 10.11.18 330 (СЗ) 6{17}  20000 м    8/0 верхняя 
[Ci sp]
+3 -4.1 60 1033  -0.5  770  307           
06 10.11.18 120 (ЮВ) 20000 м    8/0 средняя, верхняя 
[Ac trans|Ci sp]
+1.6 -4.9 62 1033.4  0.3  770  309           
21 10.11.18 120 (ЮВ) 14-17{18}  20000 м    9/3 600 м средняя 
[Sc|Ac trans]
+3.9 +0.6 79 -1  1027.7  -1.4  766  304  +2.6         
09 11.11.18 100 (В) 23-35{35}  4000 м  ливневой дождь  10/10 300 м кучево-дожд. 
[Cb cap]
+3.2 +3.1 99 -3  1012.7  -2.6  755  300    +4.8     
21 11.11.18 090 (В) 31-45{46}  2000 м  слаб. ливневой дождь  10/10 100 м кучево-дожд. 
[Cb cap]
+2.1 +2.1 100 -6  998.6  -3.7  744  297  +1.8       
09 12.11.18 090 (В) 19-25{35}  4000 м  слаб. ливневой дождь  9/9 200 м кучево-дожд. 
[Cb cap]
+3.4 +3.3 99 -2  1000.6  2.2  746  296    +3.4     
15 12.11.18 220 (ЮЗ) 20000 м    4/1 600 м верхняя 
[Sc|Ci fib]
+4.7 +3.1 89 +2  1004.8  2.2  749  296           
00 13.11.18 220 (ЮЗ) 7-10{11}  20000 м    4/3 600 м средняя, верхняя 
[Sc|Ac trans|Ci fib]
+5.5 +3.1 85 +3  1010  1.9  753  297           
03 13.11.18 210 (ЮЗ) 5{11}  20000 м    9/1 600 м средняя, верхняя 
[Sc|Ac trans|Ci sp]
+5.4 +3.6 88 +3  1010.6  0.6  753  297           
06 13.11.18 200 (Ю) 20000 м    6/1 600 м средняя, верхняя 
[Sc|Ac As|Ci fib]
+4.8 +3.7 93 +3  1011.4  0.7  754  298           
12 13.11.18 190 (Ю) 20000 м    ясно 
+4.1 +2.8 91 +4  1013.3  0.6  755  299           
15 13.11.18 160 (Ю) 20000 м    ясно 
+3.7 +2.7 93 +2  1013.5  0.2  755  300           
18 13.11.18 120 (ЮВ) 20000 м    3/0 верхняя 
[Ci fib]
+4.6 +3.6 93 +2  1013.6  0.1  755  299           
21 13.11.18 110 (В) 8-10{10}  20000 м    9/4 600 м средняя, верхняя 
[Sc|Ac trans|Ci fib]
+5.5 +4.8 95 +2  1012.8  -0.8  755  297  +3.3         
09 14.11.18 110 (В) 18-23{23}  10 км  слаб. ливневой дождь  10/10 300 м кучево-дожд. 
[Cb cap]
+4.9 +4.5 97 1010.2  -0.5  753  297    +5.8     
21 14.11.18 090 (В) 25-33{33}  20000 м  {ливн. осадки}  9/4 600 м средняя, верхняя 
[Sc|Ac trans|Ci sp]
+3 +1.5 90 -4  1005.4  -2.1  749  298  +2.8    0.0     
00 15.11.18 090 (В) 23-31{34}  10 км  слаб. ливневой дождь  9/8 300 м кучево-дожд., верхняя 
[Cb cap|Ci fib]
+2.9 +2.4 97 -4  1004.1  -1.3  748  298  +2.6         
09 15.11.18 060 (СВ) 14-19{29}  10 км  слаб. ливневой дождь со снегом  10/10 300 м кучево-дожд. 
[Cb cap]
+1.6 +0.5 92 -4  1005.4  1.5  749  300    +3.6     
18 15.11.18 320 (СЗ) 6{14}  20000 м    10/10 600 м 
[Sc]
+2.9 +0.4 84 1007.2  0.9  751  299           
09 16.11.18 340 (С) 9-12{14}  20000 м    1/1 600 м 
[Sc]
+2.3 -1.5 76 -2  1010.5  1.7  753  301    +3.8       
00 17.11.18 190 (Ю) 20000 м    9/9 600 м 
[Sc]
+3.2 +0.7 84 +1  1014.1  -0.3  756  301           
03 17.11.18 210 (ЮЗ) 7{10}  20000 м    9/3 600 м средняя, верхняя 
[Sc|Ac trans|Ci sp]
+4.1 +1 80 +1  1012.7  -1.4  755  299           
09 17.11.18 180 (Ю) 8-11{12}  20000 м  {дождь}  10/1 600 м средняя 
[Sc|Ac As]
+5.5 +4.4 93 +2  1010.7  -1.3  753  297    +5.5  0.8     
21 17.11.18 300 (СЗ) 17-20{20}  10 км  слаб. ливневой дождь со снегом  10/10 300 м кучево-дожд. 
[Cb cap]
+1.8 +1 94 -4  1002  0.9  747  299  +0.8    14     
09 18.11.18 290 (З) 4{16}  20000 м  в посл. час крупа{ливн. осадки}  9/9 600 м 
[Sc]
+1.2 -2.5 76 -1  1010.6  1.8  753  302    +3  0.0     
Время (UTC), дата Ветер
(°,м/с) 
Видим.   Явления Облачность Т
(°С)
Тd
(°С)
f(%) Тe
(°С)
Pmin
(гПа)
dP
(гПа)
Po
(мм)
O2
(г/м3)
Тmin Tmax R s Состояние
почвы

Для получения пояснительной информации подведите курсор к названию столбца.

ПОГОДА Мыс Лопатка - архив

Всё, что Вы хотите узнать о погоде Мыс Лопатка - удобно и подробно!

Выберите нужную дату (начиная с 1 января 2015* года) и нажмите кнопку "Найти".
Будут отображены архивные сводки погоды по пункту Мыс Лопатка, начиная с указанной даты.


Отображать данные в формате CSV (для использования в таблицах Excel)


Внимание! Наш архив погоды предназначен исключительно для личного некоммерческого использования в познавательных целях. Если Вам необходимы официальные справки о состоянии погоды (для производственных, юридических, коммерческих и т.п. целей), обращайтесь в органы Росгидромета.

*Примечание: данная дата относится к архиву по метеостанциям СССР (Россия, СНГ, Балтия).
Архив по метеостанциям Зарубежной Европы и Азии (кроме Китая) хранится 10 дней, по другим регионам земного шара (Китай, Африка, Америка, Австралия, Океания) - 1 день.

Мыс Лопатка - район местоположения метеостанции


Название, широта, долгота, высота метеостанции:
Мыс Лопатка 50.9°ш. 156.7°д. 48 м над ур. моря [Российская Федерация]

Дополнительная информация

В oтличие oт бoльшинства пoгoдных сайтoв мы публикуем пoдрoбную метеoинфoрмацию в детальнoм прoфессиoнальнoм фoрмате.

Характеристики температуры и влажнoсти вoздуха измеряются на высoте 2 м в тени вдали oт зданий и деревьев.
Скoрoсть ветра измеряется на высoте 10 м (на урoвне рoста челoвека скoрoсть ветра ниже в 1.5-2 раза). Если метеoстанция нахoдится в гoрoде или в лесу, тo скoрoсть ветра занижена на 2-4 м/с пo сравнению с oткрытым местoм. Скoрoсть ветра над акватoриями крупных рек и oзёр, а также на вершинах хoлмoв на 2-5 м/с выше, чем в oбычных услoвиях.
Атмoсфернoе давление в разных тoчках местнoсти мoжет значительнo oтличаться oт давления на метеoстанции, в зависимoсти oт услoвий рельефа (при пoдъёме на 10 м давление пoнижается примернo на 1 мм рт.ст.).